| time (UTC) | temp F | wind direction | speed MPH | gust MPH | rain 1hr in | rain 24hr in | rain mn in | humidity % | barometer mb |
| 20260504173037 | 81 | 293 | 1.0 | 6.0 | 0.00 | 0.00 | 0.00 | 54 | 1016.5 |
| 20260504171535 | 81 | 0 | 0.0 | 1.0 | 0.00 | 0.00 | 0.00 | 54 | 1016.6 |
| 20260504081541 | 0 | 0.0 | 0.0 | 0.00 | 0.00 | 0.00 | 1016.2 | ||
| 20260504044541 | 70 | 0 | 0.0 | 0.0 | 0.00 | 0.00 | 0.00 | 80 | 1017.1 |
| 20260504043039 | 70 | 0 | 0.0 | 0.0 | 0.00 | 0.00 | 0.00 | 80 | 1017.5 |
| 20260504041539 | 70 | 0 | 0.0 | 0.0 | 0.00 | 0.00 | 0.00 | 80 | 1017.7 |
| 20260504040059 | 71 | 0 | 0.0 | 0.0 | 0.00 | 0.00 | 0.00 | 79 | 1018.0 |
| 20260504034553 | 71 | 0 | 0.0 | 0.0 | 0.00 | 0.00 | 0.00 | 78 | 1017.9 |
| 20260504033110 | 71 | 0 | 0.0 | 1.0 | 0.00 | 0.00 | 0.00 | 78 | 1017.9 |
| 20260504031544 | 71 | 0 | 0.0 | 1.0 | 0.00 | 0.00 | 0.00 | 78 | 1017.9 |
| 20260504030045 | 71 | 0 | 0.0 | 1.0 | 0.00 | 0.00 | 0.00 | 77 | 1017.7 |
| 20260504024539 | 72 | 296 | 0.0 | 1.0 | 0.00 | 0.00 | 0.00 | 76 | 1017.6 |
| 20260504023049 | 71 | 0 | 0.0 | 1.0 | 0.00 | 0.00 | 0.00 | 75 | 1017.6 |
| 20260504021538 | 71 | 0 | 0.0 | 0.0 | 0.00 | 0.00 | 0.00 | 74 | 1017.5 |
| 20260504020039 | 71 | 0 | 0.0 | 0.0 | 0.00 | 0.00 | 0.00 | 75 | 1017.2 |
| 20260504014548 | 71 | 0 | 0.0 | 1.0 | 0.00 | 0.00 | 0.00 | 75 | 1017.0 |
| 20260504013045 | 71 | 0 | 0.0 | 1.0 | 0.00 | 0.00 | 0.00 | 73 | 1016.9 |
| 20260504011536 | 72 | 0 | 0.0 | 1.0 | 0.00 | 0.00 | 0.00 | 73 | 1016.6 |
| 20260504010052 | 72 | 0 | 0.0 | 1.0 | 0.00 | 0.00 | 0.00 | 72 | 1016.5 |
| 20260504004551 | 73 | 0 | 0.0 | 3.0 | 0.00 | 0.00 | 0.00 | 72 | 1016.2 |
| 20260504003040 | 73 | 0 | 0.0 | 1.0 | 0.00 | 0.00 | 0.00 | 70 | 1016.1 |
| 20260504001537 | 74 | 356 | 0.0 | 4.0 | 0.00 | 0.00 | 0.00 | 70 | 1016.0 |
| 20260504000044 | 75 | 351 | 1.0 | 5.0 | 0.00 | 0.00 | 0.00 | 67 | 1015.7 |
| 20260503234542 | 76 | 315 | 2.0 | 7.0 | 0.00 | 0.00 | 0.00 | 67 | 1015.7 |
| 20260503233037 | 78 | 338 | 4.0 | 7.0 | 0.00 | 0.00 | 0.00 | 67 | 1015.6 |
| 20260503231540 | 80 | 345 | 5.0 | 9.0 | 0.00 | 0.00 | 0.00 | 60 | 1015.6 |
| 20260503230040 | 82 | 235 | 0.0 | 1.0 | 0.00 | 0.00 | 0.00 | 59 | 1015.5 |
| 20260503224536 | 81 | 0 | 1.0 | 5.0 | 0.00 | 0.01 | 0.00 | 55 | 1015.4 |
| 20260503223038 | 82 | 15 | 0.0 | 6.0 | 0.00 | 0.01 | 0.00 | 54 | 1015.5 |
| 20260503221542 | 83 | 353 | 0.0 | 2.0 | 0.00 | 0.01 | 0.00 | 53 | 1015.6 |
| 20260503220038 | 83 | 6 | 0.0 | 3.0 | 0.00 | 0.01 | 0.00 | 55 | 1015.7 |
| 20260503214543 | 82 | 79 | 0.0 | 2.0 | 0.00 | 0.02 | 0.00 | 56 | 1015.5 |
| 20260503213057 | 81 | 0 | 0.0 | 3.0 | 0.00 | 0.02 | 0.00 | 54 | 1015.5 |
| 20260503211538 | 81 | 0 | 0.0 | 2.0 | 0.00 | 0.02 | 0.00 | 54 | 1015.6 |
| 20260503210045 | 81 | 0 | 1.0 | 6.0 | 0.00 | 0.02 | 0.00 | 58 | 1015.7 |
| 20260503204547 | 81 | 338 | 0.0 | 3.0 | 0.00 | 0.06 | 0.00 | 57 | 1015.6 |
| 20260503203038 | 81 | 0 | 0.0 | 1.0 | 0.00 | 0.06 | 0.00 | 57 | 1015.9 |
| 20260503201553 | 80 | 105 | 0.0 | 5.0 | 0.00 | 0.06 | 0.00 | 60 | 1016.1 |
| 20260503200039 | 80 | 0 | 0.0 | 3.0 | 0.00 | 0.06 | 0.00 | 61 | 1016.4 |
| 20260503194540 | 79 | 231 | 0.0 | 4.0 | 0.00 | 0.11 | 0.00 | 60 | 1016.5 |
| 20260503193052 | 79 | 0 | 1.0 | 6.0 | 0.00 | 0.11 | 0.00 | 62 | 1016.7 |
| 20260503191541 | 79 | 260 | 0.0 | 3.0 | 0.00 | 0.11 | 0.00 | 61 | 1017.0 |
| 20260503190040 | 78 | 18 | 1.0 | 4.0 | 0.00 | 0.11 | 0.00 | 63 | 1017.3 |
| 20260503184551 | 77 | 0 | 1.0 | 2.0 | 0.00 | 0.47 | 0.00 | 62 | 1017.5 |
| 20260503183059 | 78 | 69 | 0.0 | 4.0 | 0.00 | 0.47 | 0.00 | 64 | 1017.6 |
| 20260503181542 | 78 | 238 | 0.0 | 2.0 | 0.00 | 0.47 | 0.00 | 65 | 1017.8 |
| 20260503180043 | 77 | 0 | 1.0 | 5.0 | 0.00 | 0.47 | 0.00 | 66 | 1017.8 |
| 20260503174536 | 76 | 0 | 0.0 | 4.0 | 0.00 | 0.47 | 0.00 | 66 | 1017.8 |